Regional Weather Roundup
Issued by NWS Newport/Morehead, NC

Current Version | Previous Version | Text Only | Print | Product List | Glossary On
Versions: 1 2 3 4 5 6 7 8 9 10 11 12 13 14 15 16 17 18 19 20 21 22 23 24 25 26 27 28 29 30 31 32 33 34 35 36 37 38 39 40 41 42 43 44 45 46 47 48 49 50
852
ASUS42 KMHX 300313
RWRMHX
WEATHER ROUNDUP FOR EASTERN NORTH CAROLINA
NATIONAL WEATHER SERVICE NEWPORT/MOREHEAD CITY NC
1100 PM EDT FRI APR 29 2016

NOTE: "FAIR" INDICATES FEW OR NO CLOUDS BELOW 12,000 FEET
WITH NO SIGNIFICANT WEATHER AND/OR OBSTRUCTIONS TO VISIBILITY

NCZ015>017-031-032-045>047-102-103-300400-
NORTH COAST

CITY           SKY/WX    TMP DP  RH WIND       PRES   REMARKS
EDENTON        CLOUDY    60  59  94 E5        30.04S
ELIZABETH CITY CLOUDY    56  55  97 NE6       30.04S FOG
KITTY HAWK     CLOUDY    55  54  95 N3        30.02S
MANTEO         NOT AVBL

$$

NCZ045>047-081-094-103-104-300400-
CENTRAL COAST

CITY           SKY/WX    TMP DP  RH WIND       PRES   REMARKS
FRISCO         CLOUDY    59  56  89 NE8       30.03R
SWANQUARTER    NOT AVBL

$$

NCZ095-097-098-100-101-300400-
SOUTHERN COAST

CITY           SKY/WX    TMP DP  RH WIND       PRES   REMARKS
BEAUFORT       CLEAR     61  57  87 E3        30.01F
CEDAR ISLAND   NOT AVBL
JACKSONVILLE   CLEAR     65  58  78 E9        30.00S
PINEY ISLAND   NOT AVBL
WILMINGTON     CLEAR     66  62  87 E6        30.01R


$$

NCZ011>013-027>030-043-044-078>080-089-090>093-098-300400-
COASTAL PLAIN

CITY           SKY/WX    TMP DP  RH WIND       PRES   REMARKS
AHOSKIE        CLOUDY    59  56  90 NE5       30.02F
CLINTON        CLEAR     65  61  87 CALM      30.01S
ELIZABETHTOWN  CLEAR     67  61  79 SE3       30.00S
GOLDSBORO      CLEAR     61  61 100 E3        29.98S
GREENVILLE     PTCLDY    59  59 100 CALM      30.02S
HAVELOCK       CLEAR     60  58  92 CALM      30.02S
KENANSVILLE    CLEAR     61  58  92 CALM      30.02R
KINSTON        CLEAR     61  59  95 E5        30.01S
NEW BERN       PTCLDY    61  57  87 CALM      30.01S
RICHLANDS      CLEAR     61  59  93 E3        30.01S
ROCKY MOUNT    CLEAR     57  57 100 NE3       30.01S
WASHINGTON     CLOUDY    60  57  91 E5        30.01S
WHITEVILLE     PTCLDY    67  63  89 CALM      30.00S

$$

AMZ130-135-150-152-154-156-158-170-250-252-270-ANZ085-086-088-633-658-670-300400-
MARINE OBSERVATIONS

STATION/POSITION TIME  TEMP    WIND        PRES    WAVE   SWELL
                       AIR SEA DIR/SP/G            HT/PER HT/PER
                 (UTC) (F)     (DEG/KT/KT) (MB)    (FT/S) (FT/S)
CHESAPEAKE LIGHT 0300   53      30/ 17/ 18 1018.1
64 E VA BEACH    0250   53 53  360/ 14/ 16 1016.1    5/ 9   3/ 9
DUCK             0200   55 67              1016.5
2 E DUCK         0211      58                N/A     4/ 7
OREGON INLET     0200   55 63              1016.9
13E OREGON INLT  0300      57                N/A     4/ 8   3/ 8
HATTERAS CG      0200   61 71              1016.2
DIAMOND BUOY     0250   58 75   10/ 17/ 21 1016.4    4/ 5   2/ 8
CAPE LOOKOUT     0300   66      60/ 10/ 11 1015.6
BEAUFORT LAB     0200   65 69              1015.6
30 SE NEW RVR IN 0225      68                N/A     2/ 6
27 SE WRIGHTSVLE 0208   69 69   70/ 12/ 16 1015.6
5 SE WRIGHTSVLE  0208   69 68  100/ 10/ 14 1016.5
225 S CAPE HAT   0250   71 71  260/  4/  6 1015.3    3/ 6   3/ 6
41 SE CHARLESTON 0250   73 72  120/  6/  8 1015.5    2/ 4   2/ 9

$$




USA.gov is the U.S. government's official web portal to all federal, state and local government web resources and services.